Weather Roundup
Issued by NWS

Home | Current Version | Previous Version | Text Only | Print | Product List | Glossary On
Versions: 1 2 3 4 5 6 7 8 9 10 11 12 13 14 15 16 17 18 19 20 21 22 23 24 25 26 27 28 29 30 31 32 33 34 35 36 37 38 39 40 41 42 43 44 45 46 47 48 49 50
000
NZUS93 KARX 300310
HRRWXR

CURRENT HOURLY OBSERVATIONS ACROSS
MUCH OF THE UPPER MISSISSIPPI VALLEY
NATIONAL WEATHER SERVICE LA CROSSE WI
1000 PM CDT MON SEP 29 2014


...SOUTHEAST MINNESOTA...


CITY           SKY/WX    TMP DP  RH WIND       PRES   REMARKS
ROCHESTER      CLEAR     50  45  83 NE9       30.08F
ROCHESTER/MAYO FAIR      52  44  74 NE8       30.08S
WINONA         CLEAR     54  46  76 E9        30.09S
AUSTIN         CLEAR     52  46  82 NE5       30.06S
ALBERT LEA     CLEAR     52  48  87 E6        30.06S
DODGE CENTER   CLEAR     52  46  82 NE7       30.07S
PRESTON        CLEAR     49  46  91 NE7       30.07S
OWATONNA       CLEAR     48  45  87 NE7       30.07F
FARIBAULT      CLEAR     52  43  71 NE6       30.09S
$$

...ELSEWHERE IN MINNESOTA...


CITY           SKY/WX    TMP DP  RH WIND       PRES   REMARKS
MINNEAPOLIS    CLEAR     49  42  77 NE10      30.11S
INTNL FALLS    CLOUDY    43  40  89 SE5       30.19S
DULUTH         CLOUDY    44  39  82 E9        30.18S
RED WING       CLEAR     50  43  76 E6        30.09S
REDWOOD FALLS  CLEAR     51  47  86 E7        30.07F
MANKATO        CLEAR     54  43  66 E10       30.07F
WORTHINGTON    CLEAR     54  48  82 E12       30.05S
FAIRMONT       CLEAR     54  45  71 NE6       30.06S
$$

...SOUTHWEST WISCONSIN...


CITY           SKY/WX    TMP DP  RH WIND       PRES   REMARKS
LA CROSSE      CLEAR     54  48  80 N8        30.08R
PRAIRIE DU CHI CLOUDY    56  48  74 NE12      30.05S
BOSCOBEL       PTCLDY    55  48  77 NE8       30.06S
LONE ROCK      CLOUDY    58  49  72 N10       30.06S
PLATTEVILLE    CLOUDY    54  52  92 NE8       30.05S
FORT MC COY    CLEAR     46  45  98 N5        30.10S
CAMP DOUGLAS   MOCLDY    46  46 100 NE2       30.08F
VIROQUA        FAIR      50  49  96 NE8       30.07S
WIS DELLS      CLOUDY    51  47  87 NE8       30.07S
$$

...ELSEWHERE IN WISCONSIN...


CITY           SKY/WX    TMP DP  RH WIND       PRES   REMARKS
MILWAUKEE      CLOUDY    51  46  83 N15G22    30.05S
MADISON        CLOUDY    52  49  89 NE12      30.06S
GREEN BAY      MOCLDY    46  40  79 N10       30.10R
EAU CLAIRE     FAIR      45  39  79 NE8       30.11S
BLACK RVR FLS  FAIR      47  42  80 NE6       30.10R
MEDFORD        CLOUDY    40  37  90 NE9       30.13R WCI  34
WAUSAU         CLOUDY    43  37  79 N10       30.11S
WIS RAPIDS     MOCLDY    48  41  76 NE7       30.11S
MARSHFIELD     CLEAR     44  39  82 NE9       30.10S
RICE LAKE      PTCLDY    42  38  83 NE9       30.16S
$$

...NORTHEAST IOWA...


CITY           SKY/WX    TMP DP  RH WIND       PRES   REMARKS
DECORAH        CLOUDY    54  50  87 NE7       30.05S
MASON CITY     CLEAR     53  49  86 NE7       30.06F
CHARLES CITY   CLEAR     54  50  87 NE9       30.06S
OELWEIN        CLOUDY    54  50  87 NE12G18   30.04S
$$

...ELSEWHERE IN IOWA...


CITY           SKY/WX    TMP DP  RH WIND       PRES   REMARKS
DES MOINES     CLEAR     69  61  75 NE12      29.98R
IOWA CITY      CLEAR     67  61  81 N8        29.98R
FORT DODGE     CLEAR     59  54  82 NE7       30.02S
$$

...NORTHERN ILLINOIS...


CITY           SKY/WX    TMP DP  RH WIND       PRES   REMARKS
CHICAGO-OHARE  CLOUDY    56  51  84 N17G25    30.02R
CHICAGO-MIDWAY CLOUDY    60  54  80 NE17      30.01R
MOLINE         NOT AVBL
ROCKFORD       CLOUDY    58  52  80 NE16      30.04R
PEORIA         CLEAR     68  59  73 CALM      29.95S
$$

NOTE: "FAIR" INDICATES FEW OR NO CLOUDS BELOW 12,000 FEET WITH NO
SIGNIFICANT WEATHER AND/OR OBSTRUCTIONS TO VISIBILITY. WIND
SPEEDS ARE IN MILES-PER-HOUR.



USA.gov is the U.S. government's official web portal to all federal, state and local government web resources and services.